Location: Amsterdam
(30.7274°N, 84.4357°W)
Time: 07:42:18
(UTC+00:00)

MOZHAYETS 4 - Pass Details

Date: 15 March 2026
Orbit: 642 x 659 km, 98.3° (Epoch: 19 April)

Event Time Altitude Azimuth Distance (km) Brightness Sun altitude
Rises 10:00:13 0° 140° (SE) 2,975 11.4 -23.8°
Reaches altitude 10° 10:02:41 10° 128° (SE) 2,067 10.7 -23.3°
Maximum altitude 10:06:28 27° 71° (ENE) 1,265 9.9 -22.5°
Drops below altitude 10° 10:10:15 10° 14° (NNE) 2,075 10.5 -21.7°
Sets 10:12:44 0° 3° (N) 2,989 11.2 -21.1°
